NOAA 16 DEB, 41290

Orbit data source: Space-Track

NOAA 16 DEB, 41290 is space debris in SSO originally from a launch on Thu, 21 Sep 2000 UTC launched from the Air Force Western Test Range (AFWTR). Debris objects in space refer to the collection of defunct objects orbiting the Earth. Examples of debris include non-operational satellites, rocket bodies, and fragments generated from explosions, collisions, or faulty payload assembly.

Loading next visibility...
Identifier
41290, 2000-055GS
Orbit
SSO
Country
Flag of USUS
Related business
Manufacturer
Unknown
Mission
Spacecraft
Bus & Motor
Unknown
Mass
Unknown
Launch date (UTC)
2000-09-21 (25 years ago)
Launch vehicle
Unknown
Launch site
Air Force Western Test Range (AFWTR)
Object type
Payload
Rocket body
Debris
Shape & HBR
Unknown shape, 0.1 m
Radar Cross Section
Small (<0.1 m²)

Expand to show TLE details & history
Last TLE update: 11 hours ago

TLE from 11 hours ago
0 NOAA 16 DEB
1 41290U 00055GS  25342.58162155  .00025812  00000-0  47795-2 0  9997
2 41290  99.0024 206.3555 0017565 331.6242  28.4000 14.65184858518753
Epoch: 2025-12-08T13:57Z
TLE epoch observation values (Epoch: 2025-12-08T13:57:32.101Z)
Latitude
-0.00008°
Longitude
-80.60684°
Altitude
668.551 km
Speed
7.529 km/s
True Right ascension
13h 45m 25s
True Declination
0° 00' 00"
Sunlit
Object was in daylight at epoch
Visualization orbit readout
Latitude
Unknown
Longitude
Unknown
Altitude
Unknown
Speed
Unknown
Apparent Right ascension
Unknown
Apparent Declination
Unknown
Sunlit
N/A
Visualization observer readout
Local Sidereal Time
22:42:26
Azimuth
Unknown
Elevation
Unknown
Doppler factor
Unknown
Orbital elements
Apogee altitude
685.981 km
Perigee altitude
661.209 km
Semi-major axis
7,051.732 km
Eccentricity
0.00176
Inclination
99.0024°
RAAN
206.3555°
Arg. of periapsis
331.6242°
True anomaly
28.49592°
Mean anomaly
28.4°
Eccentric anomaly
28.44794°
Mean motion
3.66522 °/min
Orbital period
98.22 mins
BSTAR
0.0047795
Loading maneuver chart data...
Computing Atmospheric mass density...

Documentation

Showing up to 5 results
|